TimeEST,TemperatureF,Dew PointF,Humidity,Sea Level PressureIn,VisibilityMPH,Wind Direction,Wind SpeedMPH,Gust SpeedMPH,PrecipitationIn,Events,Conditions,WindDirDegrees,DateUTC
12:53 AM,72.0,69.1,91,29.95,10.0,SSE,5.8,-,N/A,,Clear,160,2012-12-29 05:53:00
1:53 AM,71.1,69.1,93,29.94,10.0,South,6.9,-,N/A,,Clear,170,2012-12-29 06:53:00
2:53 AM,71.1,69.1,93,29.94,10.0,South,5.8,-,N/A,,Mostly Cloudy,170,2012-12-29 07:53:00
3:20 AM,71.6,69.8,94,29.92,10.0,South,4.6,-,N/A,,Mostly Cloudy,170,2012-12-29 08:20:00
3:30 AM,71.6,69.8,94,29.92,10.0,South,5.8,-,N/A,,Overcast,180,2012-12-29 08:30:00
3:53 AM,72.0,70.0,93,29.93,10.0,South,8.1,-,N/A,,Overcast,180,2012-12-29 08:53:00
4:38 AM,71.6,69.8,94,29.92,10.0,South,8.1,-,N/A,,Overcast,180,2012-12-29 09:38:00
4:44 AM,73.4,69.8,88,29.92,10.0,South,9.2,17.3,N/A,,Overcast,180,2012-12-29 09:44:00
4:53 AM,73.0,71.1,93,29.92,10.0,South,9.2,-,N/A,,Overcast,190,2012-12-29 09:53:00
5:04 AM,73.4,71.6,94,29.92,10.0,South,9.2,-,N/A,,Overcast,190,2012-12-29 10:04:00
5:24 AM,73.4,71.6,94,29.93,10.0,SSW,11.5,-,N/A,,Overcast,210,2012-12-29 10:24:00
5:53 AM,73.9,72.0,93,29.96,10.0,SSW,8.1,-,N/A,,Overcast,200,2012-12-29 10:53:00
7:53 AM,73.0,72.0,96,30.00,7.0,SSW,10.4,19.6,N/A,,Overcast,200,2012-12-29 12:53:00
8:13 AM,73.4,71.6,94,29.98,8.0,South,11.5,-,N/A,,Scattered Clouds,190,2012-12-29 13:13:00
8:53 AM,73.9,71.1,91,30.01,10.0,SSW,11.5,-,N/A,,Clear,210,2012-12-29 13:53:00
9:53 AM,75.9,72.0,87,30.04,10.0,SW,10.4,16.1,N/A,,Mostly Cloudy,230,2012-12-29 14:53:00
10:53 AM,77.0,71.1,82,30.03,10.0,SW,12.7,-,N/A,,Mostly Cloudy,220,2012-12-29 15:53:00
11:53 AM,77.0,72.0,84,30.01,10.0,SW,13.8,19.6,N/A,,Mostly Cloudy,230,2012-12-29 16:53:00
12:40 PM,77.0,71.6,83,29.98,10.0,SW,11.5,-,N/A,,Mostly Cloudy,220,2012-12-29 17:40:00
12:53 PM,78.1,72.0,81,29.98,10.0,WSW,12.7,19.6,N/A,,Mostly Cloudy,240,2012-12-29 17:53:00
1:53 PM,77.0,71.1,82,29.96,10.0,WSW,13.8,-,N/A,,Overcast,250,2012-12-29 18:53:00
2:53 PM,75.9,69.1,79,29.96,10.0,West,13.8,-,N/A,,Overcast,280,2012-12-29 19:53:00
3:11 PM,75.2,69.8,83,29.95,10.0,WNW,11.5,-,N/A,,Overcast,290,2012-12-29 20:11:00
3:53 PM,73.0,64.0,73,29.97,10.0,WNW,12.7,-,N/A,,Overcast,290,2012-12-29 20:53:00
4:28 PM,73.4,64.4,73,29.96,10.0,NW,13.8,-,N/A,,Mostly Cloudy,310,2012-12-29 21:28:00
4:53 PM,72.0,64.0,76,29.98,10.0,NW,12.7,-,N/A,,Partly Cloudy,310,2012-12-29 21:53:00
6:53 PM,66.0,60.1,81,30.05,10.0,NW,9.2,-,N/A,,Partly Cloudy,310,2012-12-29 23:53:00
7:08 PM,66.2,60.8,83,30.05,10.0,NNW,11.5,-,N/A,,Mostly Cloudy,330,2012-12-30 00:08:00
7:53 PM,64.0,57.9,80,30.09,10.0,NNW,15.0,20.7,N/A,,Mostly Cloudy,330,2012-12-30 00:53:00
8:30 PM,62.6,55.4,77,30.10,10.0,NNW,11.5,-,N/A,,Scattered Clouds,330,2012-12-30 01:30:00
8:53 PM,62.1,55.0,78,30.11,10.0,NW,11.5,-,N/A,,Clear,320,2012-12-30 01:53:00
9:53 PM,60.1,53.1,78,30.14,10.0,NW,12.7,-,N/A,,Clear,320,2012-12-30 02:53:00
10:53 PM,59.0,52.0,78,30.15,10.0,NNW,11.5,-,N/A,,Clear,330,2012-12-30 03:53:00
11:53 PM,57.0,51.1,81,30.17,10.0,North,10.4,-,N/A,,Clear,350,2012-12-30 04:53:00